Location: Unspecified
(52.4292°N, 19.3359°E)
Time: 01:02:43
(UTC+02:00)

Vanguard 1 Rocket - Pass Details

Date: 21 May 2024
Orbit: 649 x 4221 km, 34.3° (Epoch: 13 June)

Event Time Altitude Azimuth Distance (km) Brightness Sun altitude
Rises 12:43:37 0° 251° (WSW) 7,013 12.1 57.9°
Reaches altitude 10° 12:49:50 10° 242° (WSW) 5,349 11.7 57.8°
Maximum altitude 13:00:39 27° 192° (SSW) 2,883 11.2 57.6°
Drops below altitude 10° 13:07:16 10° 137° (SE) 3,186 10.6 57.5°
Sets 13:09:55 0° 125° (SE) 3,822 10.8 57.4°
